Location: Grisols
(45.0093°N, 3.1167°E)
Time: 02:50:46
(UTC+00:00)

SKYMED 2 - Pass Details

Date: 21 October 2019
Orbit: 621 x 623 km, 97.9° (Epoch: 21 November)

Event Time Altitude Azimuth Distance (km) Brightness Sun altitude
Rises 17:38:28 0° 17° (NNE) 2,914 6.8 -8.7°
Reaches altitude 10° 17:40:43 10° 22° (NNE) 2,002 5.9 -9.1°
Maximum altitude 17:44:59 55° 100° (E) 752 3.7 -9.8°
Drops below altitude 10° 17:49:14 10° 179° (S) 1,985 6.2 -10.6°
Sets 17:51:26 0° 183° (S) 2,886 7.1 -11.0°
